Location: Montclair
(37.8322°N, 122.2092°W)
Time: 13:24:05
(UTC+00:00)

Daily predictions for brighter satellites

Satellite Brightness Start Highest point End
(mag) Time Altitude Azimuth Time Altitude Azimuth Time Altitude Azimuth
IRAS Rocket 4.1 12:00:50 10° N 12:06:24 75° WNW 12:09:48 24° SSW
SL-08 R/B 4.5 12:00:05 10° N 12:06:33 88° W 12:12:53 10° S
Cosmos 1544 Rocket 3.5 12:05:54 48° SW 12:06:45 58° W 12:11:03 10° N
Cosmos 2237 4.1 12:04:07 10° NNW 12:09:46 67° WSW 12:15:22 10° S
IRS-1D 3.6 12:05:25 10° NNE 12:10:45 86° ESE 12:15:43 12° SSW
Cosmos 1833 4.3 12:10:47 16° SSW 12:15:22 78° ESE 12:21:06 10° NNE
Cosmos 1821 Rocket 4.2 12:10:35 10° NNW 12:16:20 45° W 12:22:04 10° SSW
Cosmos 1339 Rocket 4.4 12:13:09 10° S 12:19:14 86° W 12:25:20 10° N
Cosmos 1190 Rocket 3.9 12:16:38 19° SSW 12:20:26 82° WNW 12:25:38 10° NNE
ALOS 4.4 12:19:20 10° NW 12:20:20 12° NW 12:20:20 12° NW
Cosmos 540 Rocket 4.5 12:16:15 10° N 12:21:13 48° ENE 12:26:08 10° SE
Cosmos 1763 Rocket 3.7 12:20:00 10° NNW 12:25:07 73° ENE 12:30:17 10° SSE
Lacrosse 5 rocket 4.0 12:25:11 10° SE 12:26:02 11° ESE 12:26:52 10° ESE
SL-16 R/B 3.8 12:28:59 19° W 12:28:59 19° W 12:32:48 10° NW
Okean 1-7 Rocket 3.5 12:25:02 10° N 12:29:31 90° E 12:33:57 10° S
Cosmos 2360 Rocket 2.3 12:29:25 10° NNW 12:35:03 77° ENE 12:40:40 10° SSE
Cosmos 1606 Rocket 3.8 12:31:10 10° S 12:35:28 71° E 12:39:47 10° NNE
Cosmos 676 Rocket 4.0 12:30:42 10° SSW 12:35:50 81° ESE 12:41:02 10° NNE
Cosmos 1812 3.0 12:33:38 10° S 12:37:04 61° E 12:40:34 10° NNE
Nadezhda 3 Rocket 4.5 12:32:48 16° SW 12:37:11 38° WNW 12:42:59 10° N
NOSS 3-2 (A) 3.2 12:35:01 11° SSW 12:39:52 79° ESE 12:45:37 10° NE
YAOGAN 6 3.8 12:38:10 10° NNW 12:40:27 19° WNW 12:40:27 19° WNW
COSMOS 2455 3.4 12:37:47 19° WSW 12:41:38 40° NW 12:47:19 10° NNE
Cosmos 2322 Rocket 2.1 12:38:09 10° NNW 12:43:48 70° WSW 12:49:23 10° SSE
Cosmos 2151 4.4 12:41:59 10° N 12:45:53 40° E 12:49:47 10° SSE
Cosmos 1605 Rocket 4.3 12:40:02 10° N 12:46:18 71° E 12:52:27 10° SSE
Cosmos 2251 Rocket 4.4 12:43:59 18° WSW 12:47:02 30° WNW 12:51:39 10° N
CZ-2C R/B 3.5 12:45:09 10° NNW 12:49:06 25° WNW 12:51:54 15° WSW
ISS -2.6 12:47:58 20° W 12:49:08 24° SW 12:51:55 10° S
ATLAS 5 CENTAUR R/B 2.6 12:46:44 10° S 12:49:34 29° ESE 12:52:30 10° NE
JB-3 4.4 12:46:37 10° SSE 12:50:24 80° ENE 12:54:17 10° N
Cosmos 2333 Rocket 2.2 12:45:17 10° NNW 12:51:01 81° WSW 12:56:41 10° SSE
Cosmos 2228 4.3 12:50:56 16° WSW 12:52:39 21° WNW 12:55:51 10° NNW
Cosmos 2219 Rocket 2.9 12:50:34 10° NNW 12:56:09 59° ENE 13:01:39 10° SE
Cosmos 1535 Rocket 4.5 12:50:28 10° N 12:56:46 81° W 13:02:56 10° S
CENTAUR R/B 2.7 12:52:15 13° WSW 12:56:54 48° NW 13:03:23 10° NNE
Cosmos 1862 4.1 12:53:49 10° NNW 12:57:02 27° W 13:00:13 10° SSW
ARGOS 3.3 12:53:23 10° NNE 12:58:45 81° ESE 13:04:06 10° S
Cosmos 1602 Rocket 4.1 12:56:23 10° NNW 13:00:30 37° W 13:04:34 10° SSW
H-2A R/B 3.9 12:59:49 10° NNE 13:02:32 34° E 13:05:15 10° SSE
Cosmos 1954 Rocket 4.4 12:58:09 10° SW 13:03:03 44° WNW 13:08:01 10° N
SL-16 R/B 3.0 12:58:36 10° NW 13:03:18 28° WSW 13:08:00 10° SSW
SJ 16-02 3.3 13:02:30 10° SSE 13:06:21 32° E 13:10:13 10° NE
H-2A R/B 2.8 13:02:56 10° N 13:07:46 36° WNW 13:12:39 10° SW
USA 215 3.3 13:02:21 10° SE 13:08:54 76° SW 13:15:28 10° NW
Cosmos 1939 Rocket 3.1 13:06:39 10° N 13:10:27 46° WNW 13:14:15 10° SSW
Cosmos 1867 3.6 13:05:49 10° SW 13:11:13 69° WNW 13:16:42 10° NNE
Cosmos 2084 3.6 13:07:07 10° SW 13:11:16 54° NW 13:15:15 10° NNE
SeaSat 1 3.9 13:10:11 10° SW 13:12:53 15° WSW 13:15:35 10° WNW
SKYMED 2 4.2 13:11:16 10° SSE 13:15:32 61° ENE 13:19:50 10° N
DELTA 2 R/B (1) 3.7 13:12:43 10° W 13:18:18 75° N 13:23:51 10° E
Meteor 2-13 Rocket 4.5 13:12:58 10° SSW 13:19:05 75° W 13:25:14 10° N
CZ-3 R/B 3.2 13:07:04 10° WSW 13:24:30 44° S 13:30:24 10° ESE
